This is the latest recevied weather packets stored in our database for station/object DK8HC-WX. If no packets are shown the sender has not sent any weather packets the latest 10 day(s).
| Time | Temp. | Humidity | Pressure | Rain* | Wind** | Luminosity | Snow |
|---|---|---|---|---|---|---|---|
| 1777371080 | 14.44° C | 47% | 1027.8 hPa | - | - | - | - |
| 1777370480 | 14.44° C | 50% | 1028 hPa | - | - | - | - |
| 1777369880 | 14.44° C | 52% | 1028.1 hPa | - | - | - | - |
| 1777369280 | 13.89° C | 51% | 1027.9 hPa | - | - | - | - |
| 1777368680 | 12.78° C | 52% | 1027.8 hPa | - | - | - | - |
| 1777368080 | 12.78° C | 53% | 1028 hPa | - | - | - | - |
| 1777367480 | 12.78° C | 54% | 1028 hPa | - | - | - | - |
| 1777366880 | 12.78° C | 56% | 1027.9 hPa | - | - | - | - |
| 1777366280 | 13.33° C | 55% | 1027.8 hPa | - | - | - | - |
| 1777365680 | 12.78° C | 59% | 1027.8 hPa | - | - | - | - |
| 1777365079 | 12.22° C | 58% | 1027.8 hPa | - | - | - | - |
| 1777364479 | 12.22° C | 59% | 1027.7 hPa | - | - | - | - |
| 1777363879 | 12.22° C | 58% | 1027.6 hPa | - | - | - | - |
| 1777363279 | 12.22° C | 59% | 1027.5 hPa | - | - | - | - |
| 1777362679 | 12.22° C | 61% | 1027.6 hPa | - | - | - | - |
| 1777362079 | 12.22° C | 63% | 1027.6 hPa | - | - | - | - |
| 1777361479 | 12.22° C | 64% | 1027.5 hPa | - | - | - | - |
| 1777360883 | 11.67° C | 68% | 1027.3 hPa | - | - | - | - |
| 1777360279 | 12.22° C | 70% | 1027.2 hPa | - | - | - | - |
| 1777359679 | 11.67° C | 71% | 1026.9 hPa | - | - | - | - |
| 1777359079 | 11.67° C | 75% | 1026.5 hPa | - | - | - | - |
| 1777357879 | 10° C | 84% | 1026 hPa | - | - | - | - |
| 1777357279 | 10° C | 86% | 1025.9 hPa | - | - | - | - |
| 1777356679 | 9.44° C | 89% | 1025.8 hPa | - | - | - | - |
| 1777356079 | 9.44° C | 93% | 1025.7 hPa | - | - | - | - |
* Rain since midnight (hover to see other rain measurements)
** Current wind speed in m/s (hover to see current wind gust speed)